TimeCST,TemperatureF,Dew PointF,Humidity,Sea Level PressureIn,VisibilityMPH,Wind Direction,Wind SpeedMPH,Gust SpeedMPH,PrecipitationIn,Events,Conditions,WindDirDegrees,DateUTC
12:52 AM,9.0,6.1,88,30.38,10.0,NW,8.1,-,N/A,,Clear,310,2013-03-02 06:52:00
1:52 AM,8.1,5.0,87,30.38,10.0,NW,8.1,-,N/A,,Clear,310,2013-03-02 07:52:00
2:52 AM,7.0,3.9,87,30.37,10.0,NW,8.1,-,N/A,,Clear,310,2013-03-02 08:52:00
3:52 AM,5.0,3.0,92,30.36,10.0,NW,5.8,-,N/A,,Clear,310,2013-03-02 09:52:00
4:52 AM,5.0,1.9,87,30.37,10.0,NW,8.1,-,N/A,,Clear,310,2013-03-02 10:52:00
5:52 AM,3.9,1.0,88,30.36,9.0,NW,8.1,-,N/A,,Clear,310,2013-03-02 11:52:00
6:52 AM,3.9,1.0,88,30.37,8.0,NW,6.9,-,N/A,,Clear,310,2013-03-02 12:52:00
7:52 AM,7.0,3.9,87,30.37,8.0,NW,4.6,-,N/A,,Clear,320,2013-03-02 13:52:00
8:52 AM,10.0,7.0,87,30.38,7.0,NW,4.6,-,N/A,,Clear,310,2013-03-02 14:52:00
9:52 AM,14.0,10.9,88,30.36,7.0,Calm,Calm,-,N/A,,Clear,0,2013-03-02 15:52:00
10:52 AM,17.1,12.9,84,30.35,8.0,Calm,Calm,-,N/A,,Clear,0,2013-03-02 16:52:00
11:52 AM,21.0,15.1,78,30.35,10.0,Calm,Calm,-,N/A,,Clear,0,2013-03-02 17:52:00
12:52 PM,21.9,16.0,78,30.32,10.0,Calm,Calm,-,N/A,,Clear,0,2013-03-02 18:52:00
1:52 PM,24.1,16.0,71,30.29,10.0,Calm,Calm,-,N/A,,Clear,0,2013-03-02 19:52:00
2:52 PM,25.0,16.0,69,30.27,10.0,South,3.5,-,N/A,,Clear,180,2013-03-02 20:52:00
3:52 PM,26.1,16.0,66,30.26,10.0,South,3.5,-,N/A,,Clear,190,2013-03-02 21:52:00
4:52 PM,25.0,18.0,75,30.25,10.0,ESE,6.9,-,N/A,,Mostly Cloudy,110,2013-03-02 22:52:00
5:52 PM,25.0,19.0,78,30.24,10.0,SE,8.1,-,N/A,,Overcast,140,2013-03-02 23:52:00
6:52 PM,25.0,19.0,78,30.24,10.0,South,6.9,-,N/A,,Overcast,180,2013-03-03 00:52:00
7:52 PM,25.0,19.0,78,30.23,10.0,South,9.2,-,N/A,,Overcast,170,2013-03-03 01:52:00
8:52 PM,24.1,18.0,77,30.22,10.0,SSE,6.9,-,N/A,,Overcast,160,2013-03-03 02:52:00
9:52 PM,24.1,18.0,77,30.21,10.0,SSE,6.9,-,N/A,,Overcast,150,2013-03-03 03:52:00
10:52 PM,24.1,18.0,77,30.19,10.0,SSE,9.2,-,N/A,,Overcast,150,2013-03-03 04:52:00